Location: Ehingen
(48.2869°N, 9.7112°E)
Time: 03:44:26
(UTC+01:00)

ISS - Pass Details

Date: 08 January 2018
Orbit: 402 x 407 km, 51.6° (Epoch: 21 January)

Event Time Altitude Azimuth Distance (km) Brightness Sun altitude
Exits shadow 06:38:33 30° 308° (NW) 752 -3.0 -14.7°
Maximum altitude 06:39:53 56° 13° (NNE) 490 -3.5 -14.5°
Drops below altitude 10° 06:43:08 10° 93° (E) 1,468 0.3 -14.0°
Sets 06:45:15 0° 98° (E) 2,328 1.8 -13.6°
